Lexington Weather

Lexington, Massachusetts, USA

55°F
5/17/2024 11:57pm 
  • Lexington Conditions: Clear
  • Temperature: 54.7°F / 12.6°CColder 1.2°F than last hour.
  • Dew Point: 50.0°FDecreased 0.5°Fsince last hour.
  • Relative Humidity: 84%Increased 2.0% since last hour.
  • Wind: Calm, 10-min avg: Calm, gust: None
  • Barometer: 29.96 in Steady
  • Visibility: 10 miles
  • Rain Today: 0.00 in
  •   

Regional Weather Roundup
for Boston, MA

        
000
ASUS41 KBOX 160510
RWRBOX

REGIONAL WEATHER ROUNDUP
NATIONAL WEATHER SERVICE BOSTON/NORTON MA
100 AM EDT THU MAY 16 2024

NOTE:  "FAIR" INDICATES FEW OR NO CLOUDS BELOW 12,000 FEET WITH NO 
SIGNIFICANT WEATHER AND/OR OBSTRUCTIONS TO VISIBILITY.

MAZALL-160600-
EASTERN MASSACHUSETTS
  
CITY           SKY/WX    TMP DP  RH WIND       PRES   REMARKS
BOSTON         RAIN      55  54  96 E8        29.83F FOG              
BEVERLY        LGT RAIN  55  53  93 CALM      29.84S                  
LAWRENCE       LGT RAIN  59  58  96 E5        29.85F                  
BEDFORD        LGT RAIN  58  56  93 E12       29.82F                  
NORWOOD        LGT RAIN  58  55  90 NE7       29.81F                  
MARSHFIELD     CLOUDY    54  52  94 NE10G16   29.81F FOG              
PLYMOUTH       LGT RAIN  56  54  93 NE12      29.78F FOG              
TAUNTON        LGT RAIN  58  54  86 VRB6      29.77F FOG              
NEW BEDFORD    RAIN      58  57  97 NE13G22   29.75F FOG              
$$

MAZALL-160600-
CAPE COD AND THE ISLANDS
  
CITY           SKY/WX    TMP DP  RH WIND       PRES   REMARKS
FALMOUTH       DRIZZLE   55  55 100 E12       29.77F                  
HYANNIS        LGT RAIN  56  55  97 E7        29.75F FOG              
CHATHAM        CLOUDY    54  53  97 E13G24    29.78F                  
PROVINCETOWN   LGT RAIN  53  53 100 E13       29.82F                  
NANTUCKET      LGT RAIN  54  54 100 E17G28    29.73F                  
MARTHAS VNYRD  RAIN      57  57 100 E15G23    29.73F FOG              
$$
 
MAZALL-160600-
CENTRAL AND WESTERN MASSACHUSETTS
  
CITY           SKY/WX    TMP DP  RH WIND       PRES   REMARKS
WORCESTER      RAIN      56  55  97 NE9G17    29.80F FOG              
FITCHBURG      LGT RAIN  60  56  86 CALM      29.83F                  
ORANGE         LGT RAIN  60  58  92 N3        29.82F                  
SPRINGFIELD    LGT RAIN  59  56  91 NE8       29.75F                  
WESTFIELD      LGT RAIN  60  57  89 NE9       29.77F                  
NORTH ADAMS    CLOUDY    59  57  93 CALM      29.80F                  
PITTSFIELD     CLOUDY    58  53  84 E6        29.78F                  
$$
 
RIZALL-160600-
RHODE ISLAND
  
CITY           SKY/WX    TMP DP  RH WIND       PRES   REMARKS
PROVIDENCE     RAIN      57  57 100 NE16      29.76F FOG              
NEWPORT        RAIN      57  56  96 NE15G22   29.72F FOG              
BLOCK ISLAND   HVY RAIN  54  54 100 NE20G28   29.66F FOG              
SMITHFIELD     LGT RAIN  56 N/A N/A NE12      29.78F                  
WESTERLY       HVY RAIN  58  56  93 NE14G24   29.67F FOG              
$$
 
CTZALL-160600-
CONNECTICUT
  
CITY           SKY/WX    TMP DP  RH WIND       PRES   REMARKS
BRADLEY INTL   RAIN      61  57  87 N10       29.76F                  
HARTFORD       LGT RAIN  60  58  92 N8        29.73F                  
PLAINVILLE     MOCLDY    59  59  99 NE9       29.72F                  
BRIDGEPORT     LGT RAIN  60  57  89 NE17G31   29.65F                  
DANBURY        LGT RAIN  60  56  86 NE7       29.70F                  
GROTON         HVY RAIN  60  59  96 NE22G39   29.66F FOG              
NEW HAVEN      RAIN      62  59  90 NE14G24   29.66F FOG              
CHESTER        HVY RAIN  59  59 100 NE12      29.69F                  
MERIDEN        LGT RAIN  59  56  89 N9G18     29.70F                  
WILLIMANTIC    LGT RAIN  58  57  97 NE12      29.74F                  
OXFORD         LGT RAIN  57  56  96 NE14G23   29.71F                  
$$

MEZ002-015-021-024-NHZ003-005-008-011-012-014-VTZ005-008-160600-
NORTHERN NEW ENGLAND
  
CITY           SKY/WX    TMP DP  RH WIND       PRES   REMARKS
PORTLAND ME    MOCLDY    57  55  93 CALM      29.84F                  
BANGOR ME      CLOUDY    59  53  80 S6        29.85F                  
CONCORD NH     MOCLDY    59  58  96 E3        29.84S                  
MANCHESTER NH  LGT RAIN  62  59  90 CALM      29.83F                  
NASHUA NH      LGT RAIN  60 N/A N/A CALM      29.84F                  
PORTSMOUTH NH  LGT RAIN  59  56  91 SE5       29.84F                  
JAFFREY NH     LGT RAIN  60  56  86 CALM      29.84S                  
KEENE NH       CLOUDY    59  58  96 CALM      29.82F                  
BURLINGTON VT  CLOUDY    61  57  87 E5        29.83F                  
MT. WASHINGTON NOT AVBL                                               
$$

NYZ052-076-160600-
EASTERN NEW YORK
  
CITY           SKY/WX    TMP DP  RH WIND       PRES   REMARKS
ALBANY         MOCLDY    60  57  89 N3        29.81S                  
NEW YORK CITY  DRIZZLE   60  55  83 N17G36    29.63F                  
$$
 
ANZALL-160600-
MARINE OBSERVATIONS
  
STATION/POSITION TIME  TEMP    WIND        PRES    VSBY  WAVE
                       AIR SEA DIR/SP/G                  HT/PER
                 (UTC) (F)     (DEG/KT/KT) (MB)    (MI)  (FT/S)
BOSTON BUOY      0430   54 54   70/ 10/ 12 1010.8F
BUZZARDS BAY     0400   54      60/ 25/ 28 1007.1F
NANTUCKET SOUND  0430   54 54   80/ 19/ 23 1007.3F
MASS BAY-STELLWA 0304   55 54  140/  8/ 10 1011.2S  1 7/8  2/ 8
ISLE OF SHOALS   0400   55     150/  5/  6 1010.5S
S OF BLOCK IS    0426      50                N/A           9/11
$$

......................KEY.........................
  SKY/WX - SKY CONDITION/PRESENT WEATHER
  TMP    - TEMPERATURE IN FAHRENHEIT
  DWPT   - DEWPOINT IN FAHRENHEIT
  RH     - RELATIVE HUMIDITY IN PERCENT
  WIND   - DIRECTION AND SPEED IN MPH
  PRES   - MEAN SEA LEVEL PRESSURE IN INCHES OF HG
  WCI    - WIND CHILL INDEX
  VSB    - VISIBILITY IN MILES
  HX     - HEAT INDEX
  TC     - TEMPERATURE IN CELSIUS
  VRB    - VARIABLE WIND DIRECTION
  N/A    - NOT AVAILABLE
  
      

Other recent Regional Weather Roundups

Fri May 17, 11:10pm EDT

Fri May 17, 10:10pm EDT

Fri May 17, 9:10pm EDT

Fri May 17, 8:10pm EDT

Fri May 17, 7:10pm EDT

Fri May 17, 6:10pm EDT

Fri May 17, 5:10pm EDT

Fri May 17, 4:10pm EDT

Fri May 17, 3:10pm EDT

Fri May 17, 2:10pm EDT

Fri May 17, 1:10pm EDT

Fri May 17, 12:10pm EDT

Fri May 17, 11:10am EDT

Fri May 17, 10:10am EDT

Fri May 17, 9:10am EDT

Fri May 17, 8:10am EDT

Fri May 17, 7:10am EDT

Fri May 17, 6:10am EDT

Fri May 17, 5:10am EDT

Fri May 17, 4:10am EDT

Fri May 17, 3:10am EDT

Fri May 17, 2:10am EDT

Fri May 17, 1:10am EDT

Fri May 17, 12:10am EDT

Thu May 16, 11:10pm EDT

Thu May 16, 10:10pm EDT

Thu May 16, 9:10pm EDT

Thu May 16, 8:10pm EDT

Thu May 16, 7:10pm EDT

Thu May 16, 6:10pm EDT

Thu May 16, 5:10pm EDT

Thu May 16, 4:10pm EDT

Thu May 16, 3:10pm EDT

Thu May 16, 2:10pm EDT

Thu May 16, 1:10pm EDT

Thu May 16, 12:10pm EDT

Thu May 16, 11:10am EDT

Thu May 16, 10:10am EDT

Thu May 16, 9:10am EDT

Thu May 16, 8:10am EDT

Thu May 16, 7:10am EDT

Thu May 16, 6:10am EDT

Thu May 16, 5:10am EDT

Thu May 16, 4:10am EDT

Thu May 16, 3:10am EDT

Thu May 16, 2:10am EDT

Thu May 16, 12:10am EDT

Wed May 15, 11:10pm EDT

Wed May 15, 10:10pm EDT

Wed May 15, 9:10pm EDT

Wed May 15, 8:10pm EDT

Wed May 15, 7:10pm EDT

Wed May 15, 6:10pm EDT

Wed May 15, 5:10pm EDT

Wed May 15, 4:10pm EDT

Wed May 15, 3:10pm EDT

Wed May 15, 2:10pm EDT

Wed May 15, 1:10pm EDT

Wed May 15, 12:10pm EDT

Wed May 15, 11:10am EDT

Wed May 15, 10:10am EDT

Wed May 15, 9:10am EDT

Wed May 15, 8:10am EDT

Wed May 15, 7:10am EDT

Wed May 15, 6:10am EDT

Wed May 15, 5:10am EDT

Wed May 15, 4:10am EDT

Wed May 15, 3:10am EDT

Wed May 15, 2:10am EDT

Wed May 15, 1:10am EDT

Wed May 15, 12:10am EDT

Tue May 14, 11:10pm EDT

Tue May 14, 10:10pm EDT

Tue May 14, 9:10pm EDT

Tue May 14, 8:10pm EDT

Tue May 14, 7:10pm EDT

Tue May 14, 6:10pm EDT

Tue May 14, 5:10pm EDT

Tue May 14, 4:10pm EDT

Tue May 14, 3:10pm EDT

Tue May 14, 2:10pm EDT

Tue May 14, 1:10pm EDT

Tue May 14, 12:10pm EDT

Tue May 14, 11:10am EDT

Tue May 14, 10:10am EDT

Tue May 14, 9:10am EDT

Tue May 14, 8:10am EDT

Tue May 14, 7:10am EDT

Tue May 14, 6:10am EDT

Tue May 14, 5:10am EDT

Tue May 14, 4:10am EDT

Tue May 14, 3:10am EDT

Tue May 14, 2:10am EDT

Tue May 14, 1:10am EDT

Tue May 14, 12:10am EDT

Mon May 13, 11:10pm EDT

Mon May 13, 10:10pm EDT

Mon May 13, 9:10pm EDT

Mon May 13, 8:10pm EDT

Mon May 13, 7:10pm EDT

Mon May 13, 6:10pm EDT

Mon May 13, 5:10pm EDT

Mon May 13, 4:10pm EDT

Mon May 13, 3:10pm EDT

Mon May 13, 2:10pm EDT

Mon May 13, 1:10pm EDT

Mon May 13, 12:10pm EDT

Mon May 13, 11:10am EDT

Mon May 13, 10:10am EDT

Mon May 13, 9:10am EDT

Mon May 13, 8:10am EDT

Mon May 13, 7:10am EDT

Mon May 13, 6:10am EDT

Mon May 13, 5:10am EDT

Mon May 13, 4:10am EDT

Mon May 13, 3:10am EDT

Mon May 13, 2:10am EDT

Mon May 13, 1:10am EDT

Mon May 13, 12:10am EDT

Sun May 12, 11:10pm EDT

Sun May 12, 10:10pm EDT

Sun May 12, 9:10pm EDT

Sun May 12, 8:10pm EDT

Sun May 12, 7:10pm EDT

Sun May 12, 6:10pm EDT

Sun May 12, 5:10pm EDT

Sun May 12, 4:10pm EDT

Sun May 12, 3:10pm EDT

Sun May 12, 2:10pm EDT

Sun May 12, 1:10pm EDT

Sun May 12, 12:10pm EDT

Sun May 12, 11:10am EDT

Sun May 12, 10:10am EDT

Sun May 12, 9:10am EDT

Sun May 12, 8:10am EDT

Sun May 12, 7:10am EDT

Sun May 12, 6:10am EDT

Sun May 12, 5:10am EDT

Sun May 12, 4:10am EDT

Sun May 12, 3:10am EDT

Sun May 12, 2:10am EDT

Sun May 12, 1:10am EDT

Sun May 12, 12:10am EDT

Sat May 11, 11:10pm EDT

Sat May 11, 10:10pm EDT

Sat May 11, 9:10pm EDT

Sat May 11, 8:10pm EDT

Sat May 11, 7:10pm EDT

Sat May 11, 6:10pm EDT

Sat May 11, 5:10pm EDT

Sat May 11, 4:10pm EDT

Sat May 11, 3:10pm EDT

Sat May 11, 2:10pm EDT

Sat May 11, 1:10pm EDT

Sat May 11, 12:10pm EDT

Sat May 11, 11:10am EDT

Sat May 11, 10:10am EDT

Sat May 11, 9:10am EDT

Sat May 11, 8:10am EDT

Sat May 11, 7:10am EDT

Sat May 11, 6:10am EDT

Sat May 11, 5:10am EDT

Sat May 11, 4:10am EDT

Sat May 11, 3:10am EDT

Sat May 11, 2:10am EDT

Sat May 11, 1:10am EDT

Sat May 11, 12:10am EDT